Location: Aufkirchen
(47.9603°N, 11.3653°E)
Time: 00:20:08
(UTC+01:00)

Tiros 1 despin weight - Visible Passes

Search period start: 26 November 2020 00:00
Search period end: 06 December 2020 00:00
Orbit: 593 x 642 km, 48.2° (Epoch: 25 November)

Date Brightness Start Highest point End Pass type
(mag) Time Alt. Az. Time Alt. Az. Time Alt. Az.
26 Nov ? 18:10:15 10° W 18:14:47 51° SSW 18:17:58 18° SE visible
26 Nov ? 19:52:52 10° W 19:55:04 15° SW 19:55:04 15° SW visible
27 Nov ? 18:26:49 10° W 18:31:02 34° SSW 18:34:19 15° SSE visible
28 Nov ? 17:01:30 10° W 17:06:09 63° SSW 17:10:44 10° ESE visible
28 Nov ? 18:43:38 10° W 18:47:10 21° SW 18:50:39 10° S visible
29 Nov ? 17:18:00 10° W 17:22:27 44° SSW 17:26:52 10° SE visible
29 Nov ? 19:01:16 10° WSW 19:03:10 12° SW 19:05:04 10° SSW visible
30 Nov ? 17:34:38 10° W 17:38:39 28° SW 17:42:38 10° SSE visible
01 Dec ? 17:51:39 10° W 17:54:44 17° SW 17:57:47 10° S visible
04 Dec ? 16:59:52 10° WSW 17:02:17 14° SW 17:04:39 10° SSW visible
